Regional Weather Roundup
Issued by NWS

Home | Current Version | Previous Version | Graphics & Text | Print | Product List | Glossary Off
Versions: 1 2 3 4 5 6 7 8 9 10 11 12 13 14 15 16 17 18 19 20 21 22 23 24 25 26 27 28 29 30 31 32 33 34 35 36 37 38 39 40 41 42 43 44 45 46 47 48 49 50

000
ASUS45 KBOU 201707
RWRCO

WEATHER ROUNDUP FOR COLORADO
NATIONAL WEATHER SERVICE DENVER/BOULDER CO
1100 AM MDT FRI OCT 20 2017

NOTE: "FAIR" INDICATES FEW OR NO CLOUDS BELOW 12000 FEET WITH NO
SIGNIFICANT WEATHER AND/OR OBSTRUCTIONS TO VISIBILITY.

COZ001>005-013-030-031-201800-
...NORTHWEST COLORADO...

CITY           SKY/WX    TMP DP  RH WIND       PRES   REMARKS
CRAIG          FAIR      66  32  28 SW22G32   29.73F
HAYDEN         FAIR      64  32  30 SW17G28   29.77F
MEEKER         FAIR      65  34  31 SW21G28   29.76F
RABBIT EARS PA FAIR      45  30  57 S12G22    29.96F
STEAMBOAT SPGS FAIR      58  35  42 CALM      29.77F
WALDEN         NOT AVBL
$$

COZ006>008-011-201800-
...WEST CENTRAL VALLEYS...

CITY           SKY/WX    TMP DP  RH WIND       PRES   REMARKS
GRAND JUNCTION FAIR      69  36  29 SE22      29.74F
MONTROSE       FAIR      68  31  25 SW13      29.83F
EAGLE          FAIR      60  33  36 VRB3      29.83F
RIFLE          FAIR      62  35  36 N3        29.77F
DELTA          FAIR      69  34  27 E6        29.81F
NUCLA          FAIR      66  32  28 SW20G28   29.89F
$$

COZ017>023-064>068-201800-
...SOUTHWEST COLORADO...

CITY           SKY/WX    TMP DP  RH WIND       PRES   REMARKS
DURANGO        FAIR      57  40  52 E7        29.99F
CORTEZ         FAIR      65  38  36 S14G20    29.93F
PAGOSA SPRINGS FAIR      55  36  48 S6        30.05F
TELLURIDE      FAIR      53  27  37 SE18G29   30.01F
WOLF CREEK PAS SNOW      32  32 100 S25G36    30.19F VSB 1/4 WCI  19
$$

COZ009-010-012-014-032>034-037-058>063-201800-
...CENTRAL COLORADO...

CITY           SKY/WX    TMP DP  RH WIND       PRES   REMARKS
ASPEN          FAIR      59  27  29 S10       29.86F
BUENA VISTA    FAIR      53  29  40 E6        29.94F
COPPER MTN     PTSUNNY   45  27  49 W10G28    30.10S
BERTHOUD PASS  PTSUNNY   34  25  69 W32G46    30.07F WCI  20
COTTONWOOD PAS FAIR      55  28  35 SE5G32    30.02S
GUNNISON       FAIR      47  26  44 VRB3      29.94
KREMMLING      FAIR      54  30  40 S5        29.86F
LEADVILLE      FAIR      49  23  36 S10       29.97F
SALIDA         FAIR      60  32  35 S18G25    29.99F
SUNLIGHT       FAIR      43  30  61 S17G31    30.03F
WILKERSON PASS FAIR      43  27  52 SW13G23   30.08F
$$

COZ069>075-201800-
...SAN LUIS VALLEY/SANGRE DE CRISTO MOUNTAINS...

CITY           SKY/WX    TMP DP  RH WIND       PRES   REMARKS
ALAMOSA        FAIR      61  34  36 S17G25    29.98F
DEL NORTE      FAIR      58  31  36 SW20G29   30.00F
LA VETA PASS   FAIR      48  32  53 S20G37    30.15F
SAGUACHE       FAIR      52  32  46 S6        30.00F
$$

COZ035-036-038>040-201800-
...NORTHERN COLORADO FRONT RANGE...

CITY           SKY/WX    TMP DP  RH WIND       PRES   REMARKS
DENVER INTL AP FAIR      70  31  23 SW14      29.71F
DMNS CITY PARK   N/A     70  29  21 SE10      29.70F
AURORA         MOSUNNY   70  31  23 SW13      29.73F
FRONT RANGE AP MOSUNNY   72  30  21 SW6       29.73F
ERIE MUNI ARPT FAIR      67  35  30 CALM      29.74F
BOULDER MUN AP FAIR      70  34  26 NE3       29.70F
CENTENNIAL     FAIR      69  30  23 SW17      29.75F
BROOMFIELD     MOSUNNY   72  34  25 CALM      29.73F
FORT COLLINS   FAIR      63  40  42 VRB5      29.70F
LONGMONT       FAIR      67  36  30 CALM      29.70F
$$

COZ041-046-047-076>085-087-088-201800-
...PIKES PEAK/PALMER DIVIDE AND SOUTHERN FOOTHILLS...

CITY           SKY/WX    TMP DP  RH WIND       PRES   REMARKS
COLO. SPRINGS  FAIR      70  31  23 E7        29.79F
A. F. ACADEMY  FAIR      68  27  21 SW8G20    29.80F
SCHRIEVER AFB  FAIR      67  29  23 CALM      29.80F
CHEYENNE MTN   FAIR      63  27  25 CALM      29.78F
ELLICOTT       FAIR     N/A N/A N/A SW12      29.78F
FALCON         FAIR      68  24  19 SW9G21    29.84F
FORT CARSON    FAIR      72  31  21 NW9       29.76F
LIMON          FAIR      72  28  19 NW9       29.73F
MONUMENT HILL  FAIR      64  30  27 W14       29.84F
CANON CITY     FAIR      72  34  25 W12       29.78F
WALSENBURG     FAIR      70  36  28 SW25G36   29.83F
TRINIDAD       FAIR      72  37  28 SW8       29.83F
$$

COZ042>045-048>051-090-091-201800-
...NORTHEAST COLORADO...

CITY           SKY/WX    TMP DP  RH WIND       PRES   REMARKS
GREELEY ARPT   FAIR      58  37  45 VRB3      29.70F
AKRON          FAIR      65  34  31 W16       29.68F
BURLINGTON     FAIR      68  42  38 S17       29.70F
WRAY           NOT AVBL
YUMA           FAIR      59  28  31 CALM      29.67F
STERLING       NOT AVBL
HOLYOKE        FAIR      63  50  63 S8        29.66F
FORT MORGAN    FAIR      69  29  22 W8        29.69F
$$

COZ086-089-092>099-201800-
...SOUTHEAST COLORADO...

CITY           SKY/WX    TMP DP  RH WIND       PRES   REMARKS
PUEBLO         FAIR      75  33  21 W13       29.73F
LA JUNTA       FAIR      76  40  27 W9        29.73F
LAMAR          FAIR      62  43  49 NW5       29.71F
SPRINGFIELD    NOT AVBL
$$



USA.gov is the U.S. government's official web portal to all federal, state and local government web resources and services.